Regional Weather Roundup
Issued by NWS

Home | Current Version | Previous Version | Text Only | Print | Product List | Glossary Off
Versions: 1 2 3 4 5 6 7 8 9 10 11 12 13 14 15 16 17 18 19 20 21 22 23 24 25 26 27 28 29 30 31 32 33 34 35 36 37 38 39 40 41 42 43 44 45 46 47 48 49 50

000
ASUS43 KMKX 181110
RWRWI

WISCONSIN REGIONAL WEATHER ROUNDUP
NATIONAL WEATHER SERVICE MILWAUKEE/SULLIVAN WI
500 AM CST MON DEC 18 2017

NOTE: "FAIR" INDICATES FEW OR NO CLOUDS BELOW 12,000 FEET WITH NO
SIGNIFICANT WEATHER AND/OR OBSTRUCTIONS TO VISIBILITY.

WIZ001-002-006>008-014>016-023>028-181200-
NORTHWEST WISCONSIN

CITY           SKY/WX    TMP DP  RH WIND       PRES   REMARKS
SUPERIOR ARPT  CLOUDY    25  22  89 SW5       29.80F WCI  19
ASHLAND        CLOUDY    27  23  85 SW8       29.80F WCI  19
HAYWARD        CLOUDY    26  24  92 SW5       29.80F FOG     WCI  20
SIREN          CLOUDY    25  24  96 S3        29.82F FOG
CUMBERLAND     FOG       25  23  93 S6        29.81F VSB 1/2 WCI  18
RICE LAKE      CLOUDY    26  25  99 CALM      29.84F FOG
CHETEK         CLOUDY    25  25  99 S6        29.84F WCI  18
LADYSMITH      CLOUDY    26  25  98 SW7       29.84F FOG     WCI  18
EAU CLAIRE     CLOUDY    27  26  96 SW5       29.86F FOG     WCI  22
MENOMONIE      CLOUDY    28  28  98 S7        29.86F FOG     WCI  21
NEW RICHMOND   CLOUDY    26  26  99 S6        29.84F FOG     WCI  19
OSCEOLA        CLOUDY    26  26 100 S5        29.86F FOG     WCI  20
$$

WIZ003>005-009-010-017-018-181200-
NORTH CENTRAL WISCONSIN

CITY           SKY/WX    TMP DP  RH WIND       PRES   REMARKS
MANITOWISH WTR CLOUDY    24  24 100 SW7       29.77F FOG     WCI  16
ARBOR VITAE    CLOUDY    27  26  96 S5        29.78F FOG     WCI  21
WOODRUFF       CLOUDY    27  26  96 S5        29.78F FOG     WCI  21
RHINELANDER    CLOUDY    25  25 100 SW6       29.79F FOG     WCI  18
EAGLE RIVER    CLOUDY    25  25 100 SW5       29.78F FOG     WCI  20
LAND O LAKES   CLOUDY    26  25  99 S5        29.79F FOG     WCI  20
PHILLIPS       CLOUDY    25  25 100 SW8       29.80F FOG     WCI  16
TOMAHAWK       CLOUDY    25  24  96 CALM      29.82F FOG
MEDFORD        FOG       25  24  96 SW3       29.81F VSB 1/2
MERRILL        CLOUDY    26  26 100 SW3       29.83F FOG
$$

WIZ029-030-035-036-043>047-181200-
CENTRAL WISCONSIN

CITY           SKY/WX    TMP DP  RH WIND       PRES   REMARKS
WAUSAU         CLOUDY    26  26 100 W5        29.82F FOG     WCI  20
MOSINEE        FOG       28  28 100 W3        29.85F VSB 1/2
MARSHFIELD     FOG       27  27 100 W6        29.83F VSB 1/2 WCI  20
STEVENS POINT  CLOUDY    27  27 100 SW5       29.86F FOG     WCI  21
WAUPACA        CLOUDY    31  29  92 W6        29.87F FOG     WCI  26
WAUTOMA        CLOUDY    30  28  92 W10       29.88F WCI  21
WISC RAPIDS    CLOUDY    28  27  96 W6        29.87F FOG     WCI  22
CAMP DOUGLAS   CLOUDY    30  29  96 W8        29.88F WCI  22
$$

WIZ011>013-019>022-031-037>040-048>050-181200-
NORTHEAST WISCONSIN

CITY           SKY/WX    TMP DP  RH WIND       PRES   REMARKS
ANTIGO         FOG       24  24 100 W5        29.82F VSB 3/4 WCI  19
SHAWANO        CLOUDY    29  28  95 W6        29.86F FOG     WCI  23
OCONTO         CLOUDY    28  26  96 W6        29.87F WCI  21
STURGEON BAY   CLOUDY    28  27  96 W9        29.87F FOG     WCI  19
GREEN BAY      CLOUDY    30  27  88 SW3       29.88F FOG
MANITOWOC      CLOUDY    30  28  92 W9        29.89F FOG     WCI  22
APPLETON       CLOUDY    30  30 100 W12       29.85F FOG     WCI  21
CLINTONVILLE   CLOUDY    28  27  93 W6        29.87F FOG     WCI  22
OSHKOSH        FOG       30  29  96 CALM      29.87F VSB 1/2
$$

WIZ032>034-041-042-053>061-181200-
SOUTHWEST WISCONSIN

CITY           SKY/WX    TMP DP  RH WIND       PRES   REMARKS
LA CROSSE      CLOUDY    31  29  92 VRB3      29.90F FOG
SPARTA         CLOUDY    28  28  99 W3        29.89F FOG
VIROQUA        CLOUDY    30  30 100 CALM      29.87F
BOSCOBEL       CLOUDY    34  29  82 SW3       29.91F HAZE
PRAIRIE DU CHI CLOUDY    33  28  83 W6        29.91F HAZE    WCI  28
PLATTEVILLE    MOCLDY    33  33 100 W8        29.90F WCI  26
$$

WIZ056-057-062-063-064-067-068-181200-
SOUTH CENTRAL WISCONSIN

CITY           SKY/WX    TMP DP  RH WIND       PRES   REMARKS
REEDSBURG      CLOUDY    31  31  99 W7        29.89S FOG     WCI  25
BARABOO/DELLS  CLOUDY    31  30  95 W6        29.88F FOG     WCI  25
LONE ROCK      CLOUDY    32  31  96 W3        29.90F FOG
MINERAL POINT  CLOUDY    34  34 100 W9        29.89S FOG     WCI  26
MADISON        CLOUDY    33  32  96 CALM      29.90F FOG
MIDDLETON      CLOUDY    34  34 100 W5        29.90R WCI  30
WATERTOWN      CLOUDY    32  32 100 CALM      29.89S FOG
MONROE         FOG       34  34 100 SW9       29.89F VSB 1/2 WCI  26
JANESVILLE     FOG       36  36 100 W5        29.90S VSB 1   WCI  32
$$

WIZ051-052-058>065-066-070>072-181200-
SOUTHEAST WISCONSIN

CITY           SKY/WX    TMP DP  RH WIND       PRES   REMARKS
MILWAUKEE      DRZL/FOG  35  34  96 W3        29.89F VSB 1
WAUKESHA       DRIZZLE   32  32 100 SW3       29.90F
MILWAUKEE/TIMM DRZL/FOG  32  30  93 CALM      29.90F VSB 1
RACINE         FOG       36  35  96 SW3       29.91F VSB 3/4
BURLINGTON     CLOUDY    48  48 100 SW6       29.89S FOG
KENOSHA        FOG       38  36  92 SW7       29.89F VSB 1   WCI  33
FOND DU LAC    FOG       31  29  92 CALM      29.88F VSB 1/4
SHEBOYGAN      CLOUDY    30  30 100 CALM      29.89S FOG
WEST BEND      MIX PCPN  32  32 100 CALM      29.88F
JUNEAU         FOG       31  31  99 S3        29.89F VSB 3/4
$$

LSZ147-162-181200-
LAKE SUPERIOR

STATION/POSITION TIME  TEMP    WIND        PRES    WAVE
                       AIR SEA DIR/SP/G            HT/PER
                 (UTC) (F)     (DEG/KT/KT) (MB)    (FT/S)
DEVILS ISLAND    1100   27     220/ 13/ 16 1009.4F
SAXON HARBOR     1040   28                 1008.8F
$$

LMZ867-665-643>646-181200-
LAKE MICHIGAN

STATION/POSITION TIME  TEMP    WIND        PRES    WAVE
                       AIR SEA DIR/SP/G            HT/PER
                 (UTC) (F)     (DEG/KT/KT) (MB)    (FT/S)
NORTHPORT PIER   1040   30      CALM  /  6 1011.2F
KEWAUNEE LAKESHO 1042   29     270/  6/  9 1011.3S
SHEBOYGAN LAKESH 1100   31     250/  2/  3 1012.9F
PORT WASHINGTON  1030   33        CALM     1013.5F
MILWAUKEE LAKESH 1050   35     250/  2/  3   N/A
KENOSHA   LAKESH 1100   39     230/  5/  9 1012.5
$$

TC  - TEMPERATURE IN CELSIUS
VSB - VISIBILITY IN STATUTE MILES
WCI - WIND CHILL INDEX
HX  - HEAT INDEX





USA.gov is the U.S. government's official web portal to all federal, state and local government web resources and services.